| time (UTC) | temp C | wind direction | speed KPH | gust KPH | rain 1hr cm | rain 24hr cm | rain mn cm | humidity % | barometer mb |
| 20260510191537 | 5 | 281 | 3.2 | 4.8 | 0.00 | 0.03 | 0.03 | 91 | 1031.8 |
| 20260510190022 | 5 | 283 | 3.2 | 4.8 | 0.00 | 0.03 | 0.03 | 91 | 1031.7 |
| 20260510184521 | 5 | 283 | 3.2 | 4.8 | 0.00 | 0.03 | 0.03 | 91 | 1031.6 |
| 20260510183021 | 5 | 283 | 3.2 | 4.8 | 0.00 | 0.03 | 0.03 | 91 | 1031.6 |
| 20260510181518 | 5 | 291 | 1.6 | 4.8 | 0.00 | 0.03 | 0.03 | 91 | 1031.5 |
| 20260510180015 | 5 | 288 | 1.6 | 4.8 | 0.00 | 0.03 | 0.03 | 91 | 1031.4 |
| 20260510174513 | 6 | 274 | 1.6 | 3.2 | 0.00 | 0.03 | 0.03 | 91 | 1031.3 |
| 20260510173011 | 6 | 300 | 1.6 | 4.8 | 0.00 | 0.03 | 0.03 | 91 | 1031.3 |
| 20260510171512 | 6 | 291 | 0.0 | 4.8 | 0.00 | 0.03 | 0.03 | 91 | 1031.3 |
| 20260510170007 | 6 | 283 | 0.0 | 3.2 | 0.03 | 0.03 | 0.03 | 90 | 1031.4 |
| 20260510164507 | 6 | 304 | 1.6 | 3.2 | 0.03 | 0.03 | 0.03 | 90 | 1031.4 |
| 20260510163002 | 6 | 288 | 0.0 | 4.8 | 0.03 | 0.03 | 0.03 | 90 | 1031.4 |
| 20260510161559 | 7 | 293 | 0.0 | 3.2 | 0.03 | 0.03 | 0.03 | 90 | 1031.6 |
| 20260510160118 | 7 | 281 | 0.0 | 3.2 | 0.00 | 0.00 | 0.00 | 89 | 1031.5 |
| 20260510154604 | 8 | 285 | 1.6 | 3.2 | 0.00 | 0.00 | 0.00 | 89 | 1031.5 |
| 20260510153050 | 8 | 287 | 0.0 | 3.2 | 0.00 | 0.00 | 0.00 | 90 | 1031.6 |
| 20260510151548 | 9 | 290 | 1.6 | 4.8 | 0.00 | 0.00 | 0.00 | 89 | 1031.6 |
| 20260510150046 | 10 | 94 | 0.0 | 0.0 | 0.00 | 0.00 | 0.00 | 90 | 1031.6 |
| 20260510144553 | 10 | 94 | 0.0 | 0.0 | 0.00 | 0.00 | 0.00 | 89 | 1031.7 |
| 20260510143044 | 10 | 94 | 0.0 | 0.0 | 0.00 | 0.00 | 0.00 | 89 | 1031.7 |
| 20260510141543 | 10 | 94 | 0.0 | 0.0 | 0.00 | 0.00 | 0.00 | 90 | 1031.7 |
| 20260510140041 | 10 | 94 | 0.0 | 0.0 | 0.00 | 0.00 | 0.00 | 89 | 1031.6 |
| 20260510134548 | 10 | 94 | 0.0 | 0.0 | 0.00 | 0.00 | 0.00 | 89 | 1031.6 |
| 20260510133037 | 10 | 94 | 0.0 | 0.0 | 0.00 | 0.00 | 0.00 | 88 | 1031.5 |
| 20260510131538 | 10 | 94 | 0.0 | 0.0 | 0.00 | 0.00 | 0.00 | 88 | 1031.6 |
| 20260510130033 | 10 | 91 | 0.0 | 0.0 | 0.00 | 0.00 | 0.00 | 87 | 1031.7 |
| 20260510124532 | 11 | 91 | 0.0 | 0.0 | 0.00 | 0.00 | 0.00 | 87 | 1031.9 |
| 20260510123035 | 11 | 91 | 0.0 | 0.0 | 0.00 | 0.00 | 0.00 | 87 | 1031.8 |
| 20260510121531 | 11 | 91 | 0.0 | 0.0 | 0.00 | 0.00 | 0.00 | 87 | 1031.8 |
| 20260510120031 | 11 | 91 | 0.0 | 0.0 | 0.00 | 0.00 | 0.00 | 87 | 1031.9 |
| 20260510114530 | 12 | 91 | 0.0 | 0.0 | 0.00 | 0.00 | 0.00 | 86 | 1031.9 |
| 20260510113029 | 11 | 91 | 0.0 | 0.0 | 0.00 | 0.00 | 0.00 | 85 | 1031.7 |
| 20260510111528 | 12 | 91 | 0.0 | 0.0 | 0.00 | 0.00 | 0.00 | 85 | 1031.7 |
| 20260510110034 | 12 | 91 | 0.0 | 1.6 | 0.00 | 0.00 | 0.00 | 83 | 1031.4 |
| 20260510104524 | 12 | 94 | 0.0 | 1.6 | 0.00 | 0.00 | 0.00 | 83 | 1031.4 |
| 20260510103025 | 13 | 71 | 1.6 | 3.2 | 0.00 | 0.00 | 0.00 | 83 | 1031.3 |
| 20260510101523 | 13 | 153 | 0.0 | 0.0 | 0.00 | 0.00 | 0.00 | 83 | 1031.4 |
| 20260510100023 | 13 | 153 | 0.0 | 0.0 | 0.00 | 0.00 | 0.00 | 83 | 1031.3 |
| 20260510094540 | 13 | 153 | 0.0 | 0.0 | 0.00 | 0.00 | 0.00 | 83 | 1031.3 |
| 20260510093111 | 13 | 153 | 0.0 | 0.0 | 0.00 | 0.00 | 0.00 | 83 | 1031.3 |
| 20260510091549 | 13 | 153 | 0.0 | 0.0 | 0.00 | 0.00 | 0.00 | 83 | 1031.1 |
| 20260510090048 | 13 | 153 | 0.0 | 0.0 | 0.00 | 0.00 | 0.00 | 83 | 1031.1 |
| 20260510084547 | 13 | 153 | 0.0 | 0.0 | 0.00 | 0.00 | 0.00 | 82 | 1030.9 |
| 20260510083047 | 13 | 153 | 0.0 | 0.0 | 0.00 | 0.00 | 0.00 | 82 | 1030.8 |
| 20260510081547 | 13 | 153 | 0.0 | 0.0 | 0.00 | 0.00 | 0.00 | 82 | 1030.7 |
| 20260510080046 | 13 | 151 | 0.0 | 0.0 | 0.00 | 0.00 | 0.00 | 81 | 1030.5 |
| 20260510074547 | 13 | 151 | 0.0 | 0.0 | 0.00 | 0.00 | 0.00 | 81 | 1030.5 |
| 20260510073047 | 13 | 151 | 0.0 | 3.2 | 0.00 | 0.00 | 0.00 | 81 | 1030.3 |
| 20260510071552 | 13 | 141 | 0.0 | 1.6 | 0.00 | 0.00 | 0.00 | 81 | 1030.2 |
| 20260510070044 | 13 | 140 | 0.0 | 4.8 | 0.00 | 0.00 | 0.00 | 80 | 1030.2 |
| 20260510064544 | 13 | 152 | 0.0 | 6.4 | 0.00 | 0.00 | 0.00 | 79 | 1030.1 |
| 20260510063043 | 14 | 159 | 3.2 | 11.3 | 0.00 | 0.00 | 0.00 | 79 | 1030.0 |
| 20260510061543 | 14 | 148 | 0.0 | 6.4 | 0.00 | 0.00 | 0.00 | 77 | 1030.0 |
| 20260510060042 | 14 | 146 | 3.2 | 8.0 | 0.00 | 0.00 | 0.00 | 77 | 1029.9 |
| 20260510054542 | 14 | 163 | 4.8 | 11.3 | 0.00 | 0.00 | 0.00 | 78 | 1029.8 |
| 20260510053056 | 15 | 143 | 4.8 | 11.3 | 0.00 | 0.00 | 0.00 | 78 | 1029.8 |
| 20260510051547 | 15 | 117 | 1.6 | 4.8 | 0.00 | 0.00 | 0.00 | 74 | 1029.8 |
| 20260510050044 | 15 | 128 | 3.2 | 8.0 | 0.00 | 0.00 | 0.00 | 72 | 1029.6 |
| 20260510044539 | 15 | 116 | 0.0 | 8.0 | 0.00 | 0.00 | 0.00 | 70 | 1029.4 |
| 20260510043047 | 15 | 149 | 1.6 | 6.4 | 0.00 | 0.00 | 0.00 | 67 | 1029.5 |
| 20260510041539 | 15 | 150 | 0.0 | 0.0 | 0.00 | 0.00 | 0.00 | 67 | 1029.5 |
| 20260510040041 | 15 | 152 | 0.0 | 4.8 | 0.00 | 0.00 | 0.00 | 67 | 1029.6 |
| 20260510034535 | 15 | 181 | 0.0 | 0.0 | 0.00 | 0.00 | 0.00 | 69 | 1029.7 |
| 20260510033031 | 15 | 160 | 0.0 | 4.8 | 0.00 | 0.00 | 0.00 | 69 | 1029.7 |
| 20260510031527 | 15 | 162 | 0.0 | 1.6 | 0.00 | 0.00 | 0.00 | 70 | 1029.8 |
| 20260510030026 | 15 | 147 | 0.0 | 6.4 | 0.00 | 0.00 | 0.00 | 71 | 1030.0 |
| 20260510024525 | 15 | 113 | 1.6 | 4.8 | 0.00 | 0.00 | 0.00 | 72 | 1030.2 |
| 20260510023024 | 15 | 155 | 1.6 | 6.4 | 0.00 | 0.00 | 0.00 | 72 | 1030.4 |
| 20260510021536 | 15 | 132 | 0.0 | 6.4 | 0.00 | 0.00 | 0.00 | 68 | 1030.5 |
| 20260510020023 | 15 | 160 | 0.0 | 1.6 | 0.00 | 0.00 | 0.00 | 69 | 1030.7 |
| 20260510014526 | 15 | 131 | 0.0 | 6.4 | 0.00 | 0.00 | 0.00 | 68 | 1030.9 |
| 20260510013025 | 15 | 253 | 0.0 | 4.8 | 0.00 | 0.00 | 0.00 | 68 | 1031.1 |
| 20260510011518 | 15 | 147 | 0.0 | 6.4 | 0.00 | 0.00 | 0.00 | 68 | 1031.1 |
| 20260510010015 | 14 | 100 | 1.6 | 4.8 | 0.00 | 0.00 | 0.00 | 70 | 1031.1 |
| 20260510004512 | 14 | 177 | 0.0 | 1.6 | 0.00 | 0.00 | 0.00 | 76 | 1031.2 |
| 20260510003008 | 13 | 275 | 0.0 | 11.3 | 0.00 | 0.00 | 0.00 | 80 | 1031.3 |
| 20260510001508 | 13 | 275 | 1.6 | 6.4 | 0.00 | 0.00 | 0.00 | 84 | 1031.3 |
| 20260510000003 | 12 | 269 | 3.2 | 6.4 | 0.00 | 0.00 | 0.00 | 86 | 1031.3 |
| 20260509234600 | 12 | 289 | 3.2 | 6.4 | 0.00 | 0.00 | 0.00 | 89 | 1031.3 |
| 20260509233059 | 12 | 269 | 4.8 | 9.7 | 0.00 | 0.00 | 0.00 | 91 | 1031.3 |
| 20260509231557 | 11 | 284 | 3.2 | 9.7 | 0.00 | 0.00 | 0.00 | 91 | 1031.3 |
| 20260509230057 | 11 | 269 | 3.2 | 8.0 | 0.00 | 0.00 | 0.00 | 91 | 1031.3 |
| 20260509224557 | 11 | 308 | 3.2 | 8.0 | 0.00 | 0.00 | 0.00 | 91 | 1031.2 |
| 20260509223056 | 11 | 271 | 3.2 | 6.4 | 0.00 | 0.00 | 0.00 | 91 | 1031.1 |
| 20260509221554 | 11 | 261 | 3.2 | 4.8 | 0.00 | 0.00 | 0.00 | 91 | 1031.0 |
| 20260509220051 | 11 | 269 | 3.2 | 4.8 | 0.00 | 0.00 | 0.00 | 91 | 1030.8 |
| 20260509214602 | 10 | 274 | 3.2 | 6.4 | 0.00 | 0.00 | 0.00 | 91 | 1030.6 |
| 20260509213045 | 10 | 276 | 1.6 | 4.8 | 0.00 | 0.00 | 0.00 | 91 | 1030.3 |
| 20260509211543 | 10 | 266 | 3.2 | 6.4 | 0.00 | 0.00 | 0.00 | 91 | 1030.1 |
| 20260509210045 | 10 | 268 | 3.2 | 8.0 | 0.00 | 0.00 | 0.00 | 91 | 1030.1 |
| 20260509204542 | 10 | 281 | 1.6 | 6.4 | 0.00 | 0.00 | 0.00 | 91 | 1029.9 |
| 20260509203043 | 10 | 281 | 1.6 | 6.4 | 0.00 | 0.00 | 0.00 | 91 | 1029.8 |
| 20260509201536 | 11 | 284 | 1.6 | 4.8 | 0.00 | 0.00 | 0.00 | 91 | 1029.7 |
| 20260509200032 | 11 | 283 | 1.6 | 4.8 | 0.00 | 0.00 | 0.00 | 91 | 1029.6 |
| 20260509194533 | 11 | 271 | 1.6 | 6.4 | 0.00 | 0.00 | 0.00 | 91 | 1029.5 |
| 20260509193031 | 11 | 278 | 1.6 | 4.8 | 0.00 | 0.00 | 0.00 | 90 | 1029.2 |